[[{"header":{"parameterUnit":"m.s-1","parameterCategory":2,"la1":30.2991,"la2":30.254,"lo1":-89.0895,"lo2":-89.0444,"dy":0.0017,"dx":0.0017,"nx":28,"ny":28,"refTime":"2025-02-24T03:00:00:Z","depth":"0","parameterNumber":2,"parameterNumberName":"U-component_of_CURRENTS"},"data":[0,0,0,0,0,0,0,0,0,0,0,0,0,0,0,0,0,0,0,0,0,0,0,0,0,0,0,0,0,0,0,0,0,0,0,0,0,0,0,0,0,0,0,0,0,0,0,0,0,0,0,0,0,0,0,0,0,0,-0.2276,-0.2276,0,-0.2318,-0.2319,-0.2319,-0.2239,-0.2237,-0.2235,-0.2233,-0.2262,-0.2264,-0.2267,0,0,0,0,0,0,0,0,0,0,0,0,0,-0.2085,-0.2089,-0.2275,-0.2276,-0.2277,-0.2318,-0.2319,-0.2319,-0.2239,-0.2237,-0.2234,-0.2232,-0.2261,-0.2264,-0.2267,0,0,0,0,0,0,0,0,0,0,0,0,0,-0.2148,-0.209,-0.2275,-0.2246,-0.2244,-0.2318,-0.2319,-0.2319,-0.224,-0.2237,-0.2233,-0.223,-0.2259,-0.2264,-0.2268,-0.2361,0,0,-0.2281,-0.2283,0,0,0,0,0,0,0,0,-0.2144,-0.2154,-0.2249,-0.2248,-0.2246,-0.2274,-0.2262,-0.2334,-0.2241,-0.2237,-0.2232,-0.2229,-0.227,-0.2273,-0.2282,-0.2363,-0.2364,-0.2281,-0.2284,-0.2286,-0.2287,0,0,0,0,0,0,0,-0.214,-0.2152,-0.2288,-0.2251,-0.2249,-0.2218,-0.2223,-0.2275,-0.2268,-0.2237,-0.2232,-0.2246,-0.2268,-0.2278,-0.2282,-0.2364,-0.2281,-0.2285,-0.2288,-0.2289,-0.2563,-0.2568,0,0,0,0,0,0,-0.2151,-0.2149,-0.2287,-0.229,-0.2191,-0.2224,-0.223,-0.2265,-0.2267,-0.2266,-0.2248,-0.2242,-0.2273,-0.2278,-0.2283,-0.2364,-0.2286,-0.229,-0.2292,-0.2559,-0.2564,-0.2569,0,0,0,0,0,0,-0.2147,-0.2164,-0.2285,-0.2221,-0.2235,-0.2232,-0.2271,-0.2268,-0.2276,-0.2277,-0.2274,-0.226,-0.227,-0.2277,-0.2323,-0.2366,-0.2292,-0.2296,-0.2553,-0.256,-0.2567,-0.2546,0,0,0,0,0,0,-0.2142,-0.2163,-0.219,-0.2224,-0.224,-0.2344,-0.2275,-0.2271,-0.2291,-0.2283,-0.2288,-0.2286,-0.2268,-0.2317,-0.2328,-0.237,-0.2299,-0.2547,-0.2556,-0.2565,-0.2541,-0.2552,-0.2561,0,0,0,0,0,-0.2135,-0.2212,-0.2192,-0.2208,-0.2279,-0.2347,-0.2353,-0.2333,-0.2296,-0.2323,-0.2308,-0.2286,-0.2382,-0.2323,-0.2335,-0.2379,-0.2543,-0.2554,-0.2564,-0.2537,-0.255,-0.2561,0,0,0,0,0,0,-0.2149,-0.2212,-0.219,-0.228,-0.2308,-0.2335,-0.2367,-0.2352,-0.2364,-0.2346,-0.2326,-0.2327,-0.2396,-0.2415,-0.2351,-0.2499,-0.247,-0.2483,-0.2446,-0.2458,-0.2468,-0.2474,-0.2302,0,0,0,0,0,-0.2165,-0.2235,-0.2268,-0.2338,-0.2355,-0.2358,-0.2381,-0.237,-0.2388,-0.2387,-0.2387,-0.2411,-0.2459,-0.2471,-0.2522,-0.259,-0.2587,-0.2643,-0.2653,-0.266,-0.2684,-0.2721,-0.2734,-0.2604,-0.2604,-0.2604,0,0,-0.2194,-0.2234,-0.2274,-0.2344,-0.2359,-0.2396,-0.2363,-0.2413,-0.2432,-0.2396,-0.2426,-0.2452,-0.2493,-0.2557,-0.2593,-0.2564,-0.2691,-0.2674,-0.2678,-0.2698,-0.2733,-0.2745,-0.2755,-0.2611,-0.261,-0.2609,0,0,-0.2269,-0.2315,-0.2373,-0.2401,-0.2436,-0.2447,-0.2464,-0.2492,-0.2489,-0.2532,-0.2517,-0.2573,-0.2625,-0.2662,-0.2687,-0.2806,-0.2754,-0.2826,-0.2856,-0.2891,-0.2899,-0.2907,-0.2867,-0.2871,-0.2814,-0.2814,-0.2814,0,-0.2292,-0.2354,-0.2401,-0.2442,-0.246,-0.247,-0.2502,-0.253,-0.2562,-0.2569,-0.2545,-0.2647,-0.2686,-0.2763,-0.2799,-0.2825,-0.2796,-0.278,-0.2894,-0.2902,-0.291,-0.2868,-0.2873,-0.2815,-0.2815,-0.2815,-0.2815,0,-0.2373,-0.2416,-0.246,-0.2503,-0.2542,-0.2586,-0.2613,-0.2644,-0.2637,-0.2645,-0.2715,-0.2761,-0.2811,-0.2851,-0.2852,-0.2948,-0.2888,-0.2899,-0.2834,-0.292,-0.2872,-0.2877,-0.2815,-0.2815,-0.2815,-0.2815,0,0,-0.242,-0.25,-0.2502,-0.2504,-0.2565,-0.26,-0.2657,-0.2698,-0.271,-0.2755,-0.2775,-0.2891,-0.2893,-0.2932,-0.2952,-0.2993,-0.3021,-0.2961,-0.2962,-0.2869,-0.302,-0.2803,-0.2786,-0.3015,-0.3017,-0.3019,-0.2939,0,-0.2443,-0.2508,-0.255,-0.2595,-0.2617,-0.2651,-0.2696,-0.2737,-0.276,-0.2791,-0.2853,-0.2896,-0.2927,-0.2935,-0.2992,-0.3028,-0.3044,-0.3038,-0.2999,-0.2998,-0.2752,-0.2791,-0.2658,-0.2561,-0.2944,-0.2945,-0.2946,0,-0.2461,-0.2503,-0.2546,-0.2597,-0.261,-0.2644,-0.2685,-0.2729,-0.2793,-0.2808,-0.2863,-0.289,-0.2981,-0.2987,-0.3069,-0.3042,-0.3044,-0.3059,-0.3056,-0.2872,-0.2793,-0.2558,-0.2556,-0.2535,-0.2953,-0.2953,-0.2952,0,-0.2401,-0.2483,-0.2506,-0.2526,-0.2603,-0.2621,-0.2659,-0.2721,-0.2732,-0.281,-0.2803,-0.2911,-0.2923,-0.2996,-0.3011,-0.304,-0.3045,-0.309,-0.2891,-0.2872,-0.2768,-0.2735,-0.2706,-0.3149,-0.3149,-0.3149,-0.315,0,-0.2376,-0.2386,-0.2476,-0.2482,-0.2497,-0.2576,-0.2586,-0.2638,-0.2694,-0.2685,-0.2793,-0.278,-0.2924,-0.2924,-0.2984,-0.2904,-0.3015,-0.2895,-0.285,-0.2752,-0.272,-0.2705,-0.274,-0.3146,-0.3147,-0.3148,-0.3148,0,-0.2267,-0.2338,-0.2355,-0.2439,-0.2458,-0.2457,-0.2504,-0.2507,-0.2583,-0.2571,-0.2585,-0.2666,-0.2663,-0.2733,-0.2811,-0.2803,-0.2731,-0.2744,-0.2566,-0.2501,-0.2302,-0.234,-0.2267,-0.2205,-0.2543,-0.2537,-0.2532,0,-0.2206,-0.2211,-0.228,-0.2276,-0.2301,-0.2322,-0.2322,-0.2421,-0.2417,-0.247,-0.244,-0.2446,-0.2417,-0.2402,-0.2406,-0.2402,-0.2474,-0.2257,-0.2331,-0.2255,-0.227,-0.2314,-0.2275,-0.2179,-0.2172,-0.2166,-0.2161,0,-0.2072,-0.21,-0.2115,-0.2115,-0.2116,-0.2122,-0.2139,-0.2128,-0.222,-0.2224,-0.221,-0.2203,-0.2142,-0.2071,-0.2012,-0.2017,-0.217,-0.2127,-0.2146,-0.2051,-0.2011,-0.1938,-0.2224,-0.2108,-0.2114,-0.2118,-0.212,-0.2123,-0.1944,-0.192,-0.1945,-0.1929,-0.1932,-0.1916,-0.1878,-0.1915,-0.1906,-0.19,-0.1961,-0.1923,-0.1862,-0.1764,-0.1719,-0.1592,-0.1744,-0.1624,-0.1692,-0.1756,-0.1657,-0.1755,-0.1524,-0.1526,-0.1528,-0.1529,-0.153,0,-0.1784,-0.1782,-0.1757,-0.1746,-0.1692,-0.1753,-0.1739,-0.1694,-0.1648,-0.168,-0.1668,-0.1626,-0.149,-0.1453,-0.132,-0.1239,-0.1272,-0.1231,-0.1348,-0.1344,-0.1509,-0.1451,-0.1073,-0.1073,-0.1073,-0.1073,-0.1073,-0.1074,-0.17,-0.1635,-0.1634,-0.1516,-0.1502,-0.1406,-0.1378,-0.1346,-0.1349,-0.1312,-0.1324,-0.1374,-0.1345,-0.1333,-0.1174,-0.1095,-0.113,-0.1038,-0.1118,-0.132,-0.1367,-0.1411,-0.1365,-0.0976,-0.0976,-0.0909,-0.0909,-0.0908]},{"header":{"parameterUnit":"m.s-1","parameterCategory":2,"la1":30.2991,"la2":30.254,"lo1":-89.0895,"lo2":-89.0444,"dy":0.0017,"dx":0.0017,"nx":28,"ny":28,"refTime":"2025-02-24T03:00:00:Z","depth":"0","parameterNumber":3,"parameterNumberName":"V-component_of_CURRENTS"},"data":[0,0,0,0,0,0,0,0,0,0,0,0,0,0,0,0,0,0,0,0,0,0,0,0,0,0,0,0,0,0,0,0,0,0,0,0,0,0,0,0,0,0,0,0,0,0,0,0,0,0,0,0,0,0,0,0,0,0,-0.0479,-0.0478,0,-0.0388,-0.0387,-0.0385,-0.0307,-0.0306,-0.0305,-0.0305,-0.0171,-0.0168,-0.0165,0,0,0,0,0,0,0,0,0,0,0,0,0,-0.0481,-0.0481,-0.0479,-0.0478,-0.0477,-0.0388,-0.0387,-0.0385,-0.0307,-0.0306,-0.0305,-0.0305,-0.0172,-0.0168,-0.0165,0,0,0,0,0,0,0,0,0,0,0,0,0,-0.0441,-0.0482,-0.0479,-0.043,-0.0424,-0.0388,-0.0386,-0.0385,-0.0307,-0.0306,-0.0305,-0.0304,-0.0173,-0.0169,-0.0164,-0.0155,0,0,-0.0151,-0.0149,0,0,0,0,0,0,0,0,-0.0444,-0.0441,-0.0438,-0.0433,-0.0427,-0.036,-0.0338,-0.0307,-0.0307,-0.0349,-0.0305,-0.0304,-0.0233,-0.0223,-0.0205,-0.0149,-0.0143,-0.015,-0.0147,-0.0146,-0.0144,0,0,0,0,0,0,0,-0.0447,-0.0444,-0.044,-0.0437,-0.0431,-0.0376,-0.037,-0.0331,-0.0294,-0.0345,-0.034,-0.0334,-0.0229,-0.0209,-0.0201,-0.0141,-0.015,-0.0146,-0.0144,-0.0142,-0.008,-0.0081,0,0,0,0,0,0,-0.0471,-0.0448,-0.0443,-0.0438,-0.0437,-0.0378,-0.0371,-0.038,-0.0295,-0.0283,-0.0335,-0.0331,-0.0217,-0.0206,-0.0196,-0.0194,-0.0146,-0.0141,-0.0139,-0.0079,-0.0081,-0.0082,0,0,0,0,0,0,-0.0471,-0.0472,-0.0447,-0.0441,-0.0435,-0.038,-0.039,-0.0379,-0.036,-0.0289,-0.0274,-0.0329,-0.0216,-0.0202,-0.016,-0.0188,-0.0139,-0.0135,-0.0078,-0.008,-0.0081,-0.0182,0,0,0,0,0,0,-0.0472,-0.0473,-0.0491,-0.0444,-0.0436,-0.0436,-0.0391,-0.0378,-0.036,-0.0353,-0.0279,-0.0265,-0.0214,-0.0167,-0.0156,-0.0181,-0.0132,-0.0077,-0.0079,-0.0081,-0.0177,-0.0187,-0.0195,0,0,0,0,0,-0.0473,-0.0509,-0.0493,-0.0492,-0.0463,-0.0437,-0.0428,-0.0382,-0.0361,-0.036,-0.0304,-0.0267,-0.0172,-0.0164,-0.015,-0.0175,-0.0076,-0.0078,-0.008,-0.0173,-0.0185,-0.0195,0,0,0,0,0,0,-0.0523,-0.0503,-0.0485,-0.0515,-0.0481,-0.0425,-0.0426,-0.0393,-0.0348,-0.0342,-0.0269,-0.0252,-0.023,-0.0188,-0.0181,-0.0164,-0.0123,-0.0123,-0.0198,-0.0208,-0.0217,-0.0241,-0.0128,0,0,0,0,0,-0.0544,-0.0564,-0.0525,-0.0547,-0.0536,-0.0482,-0.0467,-0.0436,-0.039,-0.0369,-0.0316,-0.0266,-0.023,-0.0207,-0.0167,-0.0152,-0.011,-0.0162,-0.0171,-0.0179,-0.019,-0.0165,-0.0173,-0.0089,-0.0089,-0.0089,0,0,-0.057,-0.0562,-0.0573,-0.0559,-0.0529,-0.0522,-0.047,-0.0458,-0.0449,-0.0363,-0.0338,-0.0292,-0.0233,-0.0216,-0.0203,-0.0183,-0.0176,-0.0182,-0.0189,-0.0196,-0.0169,-0.0177,-0.0184,-0.0091,-0.0091,-0.009,0,0,-0.0622,-0.0624,-0.0647,-0.0627,-0.0595,-0.0563,-0.0564,-0.0512,-0.0488,-0.0456,-0.0401,-0.0375,-0.0306,-0.028,-0.0255,-0.029,-0.0224,-0.0278,-0.0339,-0.0316,-0.0323,-0.0328,-0.0266,-0.0265,-0.0282,-0.0283,-0.0283,0,-0.0653,-0.0676,-0.0648,-0.0655,-0.0648,-0.0587,-0.0598,-0.0567,-0.0507,-0.0495,-0.0461,-0.0389,-0.0342,-0.0332,-0.0344,-0.0313,-0.027,-0.0304,-0.0328,-0.0333,-0.0337,-0.0272,-0.0269,-0.0288,-0.0287,-0.0287,-0.0286,0,-0.0704,-0.0722,-0.0734,-0.0726,-0.0715,-0.0717,-0.0672,-0.0655,-0.0617,-0.0581,-0.0558,-0.0495,-0.0452,-0.0443,-0.0399,-0.0413,-0.0361,-0.0343,-0.0304,-0.0352,-0.0279,-0.0275,-0.0295,-0.0293,-0.0292,-0.029,0,0,-0.077,-0.0773,-0.0774,-0.0781,-0.0754,-0.075,-0.0745,-0.0723,-0.0715,-0.0669,-0.066,-0.0618,-0.0583,-0.0555,-0.0508,-0.0492,-0.0476,-0.0435,-0.0431,-0.0377,-0.039,-0.0316,-0.0303,-0.046,-0.046,-0.0461,-0.0321,0,-0.0812,-0.0849,-0.0836,-0.0864,-0.0877,-0.0834,-0.0834,-0.0807,-0.0765,-0.0738,-0.0695,-0.0664,-0.0625,-0.0604,-0.0589,-0.0498,-0.0474,-0.0514,-0.0349,-0.0343,-0.0276,-0.03,-0.0264,-0.0134,-0.0316,-0.0316,-0.0315,0,-0.0856,-0.0877,-0.0917,-0.0932,-0.0934,-0.0939,-0.0925,-0.0915,-0.0868,-0.0836,-0.0808,-0.0751,-0.0719,-0.0679,-0.0574,-0.0596,-0.051,-0.0443,-0.0436,-0.0332,-0.0263,-0.012,-0.0119,0.0002,-0.0308,-0.0309,-0.0309,0,-0.0901,-0.0931,-0.0969,-0.0972,-0.0977,-0.0987,-0.0983,-0.0947,-0.093,-0.0894,-0.0864,-0.0822,-0.0766,-0.0694,-0.0547,-0.0559,-0.0409,-0.0404,-0.0256,-0.0247,-0.0168,-0.0153,-0.0038,-0.0344,-0.0344,-0.0345,-0.0345,0,-0.0946,-0.0973,-0.0993,-0.1011,-0.1049,-0.1037,-0.105,-0.1034,-0.0997,-0.0973,-0.0918,-0.087,-0.0767,-0.0656,-0.0557,-0.0376,-0.0411,-0.0267,-0.0217,-0.0198,-0.0188,-0.0038,0.0008,-0.034,-0.0341,-0.0342,-0.0343,0,-0.0975,-0.099,-0.1033,-0.1059,-0.1068,-0.1091,-0.1085,-0.1084,-0.1046,-0.1006,-0.0995,-0.0887,-0.0741,-0.0609,-0.0449,-0.0355,-0.0123,-0.0144,-0.0107,-0.0057,0.017,0.0209,0.0392,0.0471,0.0026,0.0029,0.0031,0,-0.0987,-0.1014,-0.1062,-0.1086,-0.1098,-0.1122,-0.1131,-0.1112,-0.1097,-0.1003,-0.0981,-0.0833,-0.0713,-0.0439,-0.026,-0.0061,0.0016,0.0096,0.0056,0.019,0.027,0.0297,0.035,0.0139,0.0142,0.0144,0.0146,0,-0.1007,-0.1025,-0.1059,-0.1112,-0.1139,-0.1163,-0.117,-0.1165,-0.1121,-0.107,-0.0966,-0.0865,-0.0576,-0.033,-0.0056,0.0058,0.0196,0.0151,0.0267,0.0347,0.0405,0.0503,0.0069,0.0167,0.0165,0.0163,0.0162,0.0161,-0.101,-0.1042,-0.1089,-0.1133,-0.1168,-0.1195,-0.1204,-0.1191,-0.1161,-0.1067,-0.0959,-0.0776,-0.0406,-0.0018,0.0124,0.0438,0.0394,0.0514,0.0549,0.0564,0.0633,0.0262,0.0423,0.0422,0.0422,0.0421,0.0421,0,-0.1014,-0.1056,-0.1104,-0.1163,-0.1198,-0.1209,-0.122,-0.1206,-0.1168,-0.1046,-0.0925,-0.0511,-0.0142,0.0194,0.0633,0.0809,0.0833,0.0894,0.0923,0.0957,0.0617,0.0613,0.0848,0.0848,0.0847,0.0847,0.0847,0.0847,-0.1021,-0.107,-0.1102,-0.1168,-0.1204,-0.1231,-0.1235,-0.1206,-0.1121,-0.0907,-0.0676,-0.0492,0.0013,0.0701,0.1106,0.1147,0.1282,0.129,0.136,0.1104,0.107,0.1037,0.1044,0.1365,0.1366,0.1685,0.1688,0.169]}],[{"header":{"parameterUnit":"m.s-1","parameterCategory":2,"la1":30.2991,"la2":30.254,"lo1":-89.0895,"lo2":-89.0444,"dy":0.0017,"dx":0.0017,"nx":28,"ny":28,"refTime":"2025-02-24T03:00:00:Z","depth":"2","parameterNumber":2,"parameterNumberName":"U-component_of_CURRENTS"},"data":[0,0,0,0,0,0,0,0,0,0,0,0,0,0,0,0,0,0,0,0,0,0,0,0,0,0,0,0,0,0,0,0,0,0,0,0,0,0,0,0,0,0,0,0,0,0,0,0,0,0,0,0,0,0,0,0,0,0,-0.1903,-0.1904,0,-0.194,-0.194,-0.194,-0.1901,-0.19,-0.1899,-0.1898,-0.1903,-0.1904,-0.1906,0,0,0,0,0,0,0,0,0,0,0,0,0,-0.1792,-0.1794,-0.1903,-0.1904,-0.1904,-0.194,-0.194,-0.194,-0.1901,-0.19,-0.1899,-0.1897,-0.1903,-0.1904,-0.1906,0,0,0,0,0,0,0,0,0,0,0,0,0,-0.1832,-0.1794,-0.1903,-0.1892,-0.1892,-0.194,-0.194,-0.194,-0.1902,-0.19,-0.1898,-0.1897,-0.1902,-0.1904,-0.1906,-0.1953,0,0,-0.1912,-0.1913,0,0,0,0,0,0,0,0,-0.183,-0.1836,-0.1893,-0.1893,-0.1893,-0.1917,-0.1903,-0.1944,-0.1902,-0.1894,-0.1898,-0.1896,-0.1909,-0.191,-0.1916,-0.1953,-0.1953,-0.1912,-0.1913,-0.1914,-0.1914,0,0,0,0,0,0,0,-0.1827,-0.1834,-0.1914,-0.1894,-0.1894,-0.1883,-0.1887,-0.1911,-0.1907,-0.1895,-0.1893,-0.1903,-0.1908,-0.1915,-0.1916,-0.1953,-0.1912,-0.1914,-0.1915,-0.1915,-0.2018,-0.2019,0,0,0,0,0,0,-0.1833,-0.1832,-0.1913,-0.1915,-0.186,-0.1887,-0.1891,-0.1908,-0.1908,-0.1907,-0.1905,-0.1902,-0.1912,-0.1914,-0.1916,-0.1966,-0.1914,-0.1916,-0.1917,-0.2016,-0.2018,-0.202,0,0,0,0,0,0,-0.183,-0.184,-0.1911,-0.1876,-0.1885,-0.1891,-0.1911,-0.191,-0.1916,-0.1917,-0.1914,-0.1912,-0.1911,-0.1913,-0.1942,-0.1965,-0.1916,-0.1918,-0.2014,-0.2017,-0.2019,-0.2068,0,0,0,0,0,0,-0.1827,-0.1839,-0.185,-0.1877,-0.1888,-0.1947,-0.1913,-0.1912,-0.1927,-0.1923,-0.1923,-0.1921,-0.191,-0.1939,-0.1944,-0.1967,-0.192,-0.2012,-0.2015,-0.2018,-0.2065,-0.2072,-0.2079,0,0,0,0,0,-0.1823,-0.1851,-0.1851,-0.186,-0.1904,-0.1949,-0.1954,-0.1948,-0.193,-0.1944,-0.1941,-0.1921,-0.1961,-0.1943,-0.1947,-0.1972,-0.2011,-0.2015,-0.2018,-0.2062,-0.2071,-0.2078,0,0,0,0,0,0,-0.1811,-0.1851,-0.185,-0.1889,-0.1919,-0.1944,-0.1959,-0.1959,-0.1969,-0.1962,-0.1948,-0.1948,-0.1979,-0.1977,-0.1956,-0.2011,-0.1981,-0.1986,-0.2013,-0.2021,-0.2028,-0.2009,-0.1921,0,0,0,0,0,-0.1816,-0.1845,-0.1881,-0.1913,-0.1928,-0.1945,-0.196,-0.1965,-0.1981,-0.1983,-0.1981,-0.1985,-0.2001,-0.201,-0.2022,-0.2061,-0.2044,-0.2079,-0.2086,-0.2092,-0.2081,-0.2112,-0.212,-0.2032,-0.2032,-0.2032,0,0,-0.1826,-0.1848,-0.1867,-0.1912,-0.193,-0.196,-0.1949,-0.1986,-0.2003,-0.1985,-0.2003,-0.2012,-0.2018,-0.2051,-0.2065,-0.205,-0.2103,-0.2097,-0.2101,-0.2087,-0.2116,-0.2125,-0.2132,-0.2034,-0.2034,-0.2033,0,0,-0.1854,-0.1876,-0.1904,-0.1931,-0.1968,-0.1982,-0.1995,-0.2026,-0.203,-0.2064,-0.205,-0.2073,-0.2097,-0.2104,-0.2111,-0.2169,-0.2139,-0.2177,-0.2198,-0.2229,-0.2236,-0.2242,-0.2205,-0.2207,-0.2181,-0.2181,-0.2181,0,-0.1864,-0.1894,-0.1921,-0.195,-0.1968,-0.1992,-0.2019,-0.2041,-0.2075,-0.2083,-0.2073,-0.2112,-0.2119,-0.2157,-0.2172,-0.2184,-0.2174,-0.2165,-0.2237,-0.2243,-0.2248,-0.2208,-0.221,-0.2184,-0.2184,-0.2184,-0.2183,0,-0.1904,-0.1927,-0.1949,-0.1985,-0.2013,-0.2047,-0.2079,-0.2103,-0.2108,-0.2124,-0.2161,-0.2177,-0.2195,-0.221,-0.2207,-0.2254,-0.2223,-0.2242,-0.2212,-0.226,-0.2215,-0.2216,-0.2188,-0.2187,-0.2186,-0.2186,0,0,-0.1918,-0.1967,-0.1969,-0.1979,-0.2029,-0.2056,-0.2095,-0.2132,-0.215,-0.2183,-0.2203,-0.2243,-0.2248,-0.2256,-0.2265,-0.229,-0.2314,-0.2282,-0.2283,-0.2235,-0.2335,-0.2197,-0.2184,-0.2355,-0.2356,-0.2357,-0.2277,0,-0.1932,-0.1974,-0.1999,-0.2035,-0.2053,-0.2086,-0.2118,-0.2158,-0.2184,-0.2213,-0.224,-0.2267,-0.2269,-0.2281,-0.2312,-0.2316,-0.2324,-0.233,-0.2302,-0.23,-0.2166,-0.2185,-0.2049,-0.1958,-0.2278,-0.2278,-0.2278,0,-0.1942,-0.1966,-0.2,-0.2038,-0.2051,-0.2081,-0.2121,-0.2157,-0.2211,-0.2231,-0.2269,-0.2289,-0.2322,-0.2325,-0.2346,-0.2351,-0.2343,-0.234,-0.2338,-0.2191,-0.2166,-0.1968,-0.1947,-0.2279,-0.2279,-0.2279,-0.2279,0,-0.1902,-0.1956,-0.1974,-0.1992,-0.2051,-0.207,-0.2101,-0.2157,-0.2181,-0.2241,-0.2257,-0.2308,-0.2315,-0.2344,-0.2319,-0.2349,-0.2316,-0.2362,-0.2219,-0.2207,-0.2072,-0.2045,-0.2376,-0.2376,-0.2377,-0.2377,-0.2377,0,-0.1884,-0.1896,-0.1957,-0.1967,-0.199,-0.2045,-0.2075,-0.2115,-0.2172,-0.2188,-0.226,-0.2265,-0.2327,-0.2313,-0.2314,-0.2232,-0.231,-0.2202,-0.2185,-0.208,-0.2057,-0.233,-0.2326,-0.2374,-0.2374,-0.2375,-0.2376,0,-0.1823,-0.1868,-0.1886,-0.1948,-0.1967,-0.1981,-0.2044,-0.2058,-0.213,-0.2149,-0.2166,-0.2227,-0.2206,-0.2215,-0.2223,-0.2187,-0.215,-0.2102,-0.1928,-0.1891,-0.2023,-0.2023,-0.1958,-0.1953,-0.1948,-0.1944,-0.1941,0,-0.1791,-0.1795,-0.1852,-0.1855,-0.1878,-0.1915,-0.1928,-0.2015,-0.2027,-0.2104,-0.2092,-0.2105,-0.2075,-0.2006,-0.1956,-0.1892,-0.1999,-0.1716,-0.1761,-0.1994,-0.1985,-0.1991,-0.1997,-0.1593,-0.1587,-0.1583,-0.1579,0,-0.1714,-0.1736,-0.1749,-0.1761,-0.1774,-0.1795,-0.1825,-0.1837,-0.192,-0.1941,-0.1943,-0.1937,-0.1877,-0.1747,-0.1649,-0.1609,-0.1722,-0.1615,-0.1922,-0.1713,-0.1642,-0.1635,-0.1655,-0.1537,-0.1541,-0.1544,-0.1546,-0.1548,-0.1637,-0.1625,-0.164,-0.1639,-0.1655,-0.165,-0.1628,-0.1666,-0.1673,-0.1672,-0.1741,-0.168,-0.166,-0.1452,-0.1354,-0.1285,-0.1429,-0.1389,-0.1408,-0.1431,-0.1396,-0.1321,-0.1144,-0.1146,-0.1148,-0.1149,-0.115,0,-0.1524,-0.1521,-0.1512,-0.1506,-0.1471,-0.1526,-0.1526,-0.1484,-0.1441,-0.1465,-0.1449,-0.1295,-0.1191,-0.1181,-0.1014,-0.0964,-0.1004,-0.0921,-0.0997,-0.1037,-0.1074,-0.1026,-0.0674,-0.0672,-0.0671,-0.067,0,0,-0.1461,-0.1411,-0.1407,-0.1317,-0.131,-0.1232,-0.1208,-0.117,-0.116,-0.1095,-0.1065,-0.1141,-0.1157,-0.0929,-0.0858,-0.0743,-0.0889,-0.0699,-0.1082,-0.1213,-0.1248,-0.1339,-0.1309,0,0,0,0,0]},{"header":{"parameterUnit":"m.s-1","parameterCategory":2,"la1":30.2991,"la2":30.254,"lo1":-89.0895,"lo2":-89.0444,"dy":0.0017,"dx":0.0017,"nx":28,"ny":28,"refTime":"2025-02-24T03:00:00:Z","depth":"2","parameterNumber":3,"parameterNumberName":"V-component_of_CURRENTS"},"data":[0,0,0,0,0,0,0,0,0,0,0,0,0,0,0,0,0,0,0,0,0,0,0,0,0,0,0,0,0,0,0,0,0,0,0,0,0,0,0,0,0,0,0,0,0,0,0,0,0,0,0,0,0,0,0,0,0,0,-0.0208,-0.0208,0,-0.0137,-0.0136,-0.0135,-0.0078,-0.0078,-0.0078,-0.0077,0.005,0.0053,0.0056,0,0,0,0,0,0,0,0,0,0,0,0,0,-0.0225,-0.0225,-0.0209,-0.0208,-0.0207,-0.0137,-0.0135,-0.0134,-0.0079,-0.0078,-0.0078,-0.0077,0.0049,0.0053,0.0056,0,0,0,0,0,0,0,0,0,0,0,0,0,-0.019,-0.0225,-0.0209,-0.0172,-0.0168,-0.0137,-0.0135,-0.0134,-0.0079,-0.0078,-0.0078,-0.0077,0.0048,0.0052,0.0057,0.0074,0,0,0.0071,0.0073,0,0,0,0,0,0,0,0,-0.0192,-0.0189,-0.0178,-0.0175,-0.017,-0.0118,-0.0094,-0.0062,-0.0079,-0.0111,-0.0077,-0.0077,-0.0003,0.0006,0.0021,0.008,0.0086,0.0071,0.0074,0.0076,0.0077,0,0,0,0,0,0,0,-0.0195,-0.0192,-0.0178,-0.0178,-0.0173,-0.0135,-0.013,-0.0088,-0.0058,-0.0108,-0.0104,-0.0099,0.0,0.0016,0.0024,0.0088,0.0071,0.0075,0.0078,0.008,0.0173,0.0172,0,0,0,0,0,0,-0.0212,-0.0194,-0.018,-0.0176,-0.0182,-0.0135,-0.0129,-0.0134,-0.0059,-0.0049,-0.01,-0.0097,0.0008,0.0019,0.0029,0.0051,0.0076,0.008,0.0083,0.0173,0.0173,0.0172,0,0,0,0,0,0,-0.0213,-0.0212,-0.0183,-0.0184,-0.0178,-0.0136,-0.0141,-0.0132,-0.0118,-0.0054,-0.0042,-0.0094,0.0009,0.0022,0.0064,0.0057,0.0082,0.0086,0.0173,0.0173,0.0172,0.0098,0,0,0,0,0,0,-0.0214,-0.0213,-0.0221,-0.0186,-0.0179,-0.0171,-0.0141,-0.0131,-0.0117,-0.0112,-0.0045,-0.0033,0.001,0.0057,0.0069,0.0064,0.009,0.0174,0.0173,0.0172,0.0101,0.0096,0.0091,0,0,0,0,0,-0.0215,-0.023,-0.0222,-0.022,-0.0192,-0.0172,-0.0164,-0.013,-0.0117,-0.0114,-0.0068,-0.0035,0.0062,0.006,0.0074,0.007,0.0174,0.0173,0.0173,0.0104,0.0097,0.0091,0,0,0,0,0,0,-0.0239,-0.0225,-0.0215,-0.0225,-0.0203,-0.0163,-0.0158,-0.0137,-0.01,-0.0096,-0.0034,-0.0019,0.0013,0.0052,0.0049,0.0095,0.0122,0.0124,0.0064,0.0058,0.0053,0.0044,0.0094,0,0,0,0,0,-0.0251,-0.0261,-0.0234,-0.0243,-0.0234,-0.0199,-0.0186,-0.0167,-0.0131,-0.0114,-0.0066,-0.0018,0.0021,0.0047,0.0088,0.0116,0.0153,0.0122,0.0116,0.0112,0.0113,0.0151,0.0149,0.017,0.017,0.017,0,0,-0.0265,-0.0258,-0.0263,-0.0249,-0.0229,-0.0222,-0.0189,-0.0179,-0.017,-0.0106,-0.0075,-0.0035,0.0024,0.0054,0.0071,0.0086,0.0125,0.0111,0.0106,0.0111,0.015,0.0148,0.0146,0.017,0.017,0.017,0,0,-0.0295,-0.0289,-0.0304,-0.0291,-0.0272,-0.0247,-0.0249,-0.0212,-0.019,-0.0161,-0.0115,-0.0079,-0.0015,0.0025,0.0053,0.0044,0.0093,0.0053,0.0023,0.0059,0.0058,0.0057,0.0099,0.0103,0.0053,0.0053,0.0053,0,-0.0311,-0.0326,-0.0304,-0.031,-0.0303,-0.0263,-0.027,-0.0242,-0.0196,-0.0179,-0.0161,-0.0075,-0.0028,0.0011,0.0008,0.0032,0.0061,0.0041,0.0052,0.0052,0.0052,0.0096,0.0101,0.0049,0.0049,0.005,0.005,0,-0.0348,-0.0356,-0.0363,-0.0358,-0.0347,-0.0349,-0.0311,-0.0292,-0.0262,-0.0232,-0.0191,-0.0128,-0.0078,-0.006,-0.0026,-0.0002,0.002,0.0036,0.0064,0.0045,0.0093,0.0099,0.0044,0.0045,0.0046,0.0047,0,0,-0.0391,-0.039,-0.0393,-0.0399,-0.0375,-0.0372,-0.0354,-0.0325,-0.0315,-0.0265,-0.0245,-0.018,-0.0151,-0.0117,-0.0072,-0.0036,-0.0008,-0.0005,-0.0001,0.0031,0.0074,0.0085,0.0094,0.0005,0.0005,0.0006,0.0106,0,-0.0424,-0.0453,-0.0438,-0.0457,-0.0464,-0.0425,-0.0414,-0.0384,-0.0344,-0.0312,-0.0248,-0.0213,-0.0171,-0.0152,-0.0112,-0.0032,0.0005,-0.0036,0.0094,0.0099,0.0105,0.01,0.0087,0.0173,0.0112,0.0113,0.0114,0,-0.0461,-0.0476,-0.0506,-0.0507,-0.0507,-0.0509,-0.0485,-0.047,-0.0413,-0.0383,-0.0335,-0.0283,-0.0218,-0.0186,-0.0061,-0.0092,-0.0018,0.0045,0.005,0.0092,0.0121,0.0184,0.0188,0.0126,0.0125,0.0124,0.0123,0,-0.0504,-0.0521,-0.0548,-0.055,-0.0544,-0.0546,-0.0537,-0.0495,-0.0485,-0.0428,-0.0414,-0.0328,-0.0285,-0.0186,-0.0058,-0.006,0.008,0.0096,0.0179,0.0181,0.0213,0.0216,0.0178,0.0178,0.0178,0.0177,0.0177,0,-0.0544,-0.0565,-0.0573,-0.059,-0.0622,-0.0597,-0.0612,-0.0586,-0.0552,-0.0542,-0.046,-0.0428,-0.0286,-0.0187,-0.0072,0.0074,0.0072,0.0177,0.0206,0.0186,0.0186,0.0179,0.0178,0.0181,0.018,0.018,0.0179,0,-0.0585,-0.059,-0.0625,-0.0637,-0.0645,-0.0668,-0.0673,-0.0676,-0.0637,-0.0619,-0.0606,-0.05,-0.0365,-0.0216,-0.004,0.0053,0.0194,0.0244,0.0213,0.0236,0.0276,0.027,0.035,0.0352,0.0353,0.0353,0.0354,0,-0.0609,-0.0631,-0.0671,-0.0697,-0.0707,-0.0733,-0.0748,-0.0725,-0.0721,-0.0656,-0.0648,-0.0527,-0.042,-0.0163,0.0022,0.0226,0.0228,0.0322,0.0314,0.0273,0.0293,0.0286,0.0278,0.0334,0.0334,0.0335,0.0335,0,-0.0648,-0.0663,-0.0694,-0.0752,-0.0784,-0.0816,-0.083,-0.0843,-0.0801,-0.077,-0.0693,-0.0604,-0.0362,-0.0139,0.0109,0.0226,0.0287,0.0336,0.0311,0.0281,0.0263,0.0281,0.0273,0.0339,0.0338,0.0338,0.0338,0.0338,-0.0673,-0.0709,-0.0748,-0.0799,-0.0842,-0.0877,-0.0894,-0.0889,-0.0877,-0.0804,-0.0722,-0.056,-0.0357,0.0005,0.018,0.0341,0.0338,0.039,0.0387,0.0384,0.0353,0.0336,0.0421,0.0421,0.0421,0.0422,0.0422,0,-0.0693,-0.0732,-0.0787,-0.0846,-0.089,-0.0903,-0.0928,-0.0916,-0.0888,-0.0797,-0.0695,-0.0454,-0.0205,0.0008,0.0267,0.0414,0.0405,0.0438,0.0402,0.0398,0.0395,0.0362,0.0434,0.0434,0.0435,0.0435,0,0,-0.0705,-0.0755,-0.0784,-0.086,-0.0903,-0.0938,-0.0947,-0.092,-0.085,-0.0747,-0.0621,-0.0452,-0.0191,-0.0006,0.0182,0.0318,0.0318,0.033,0.0306,0.0238,0.0232,0.0355,0.0299,0,0,0,0,0]}],[{"header":{"parameterUnit":"m.s-1","parameterCategory":2,"la1":30.2991,"la2":30.254,"lo1":-89.0895,"lo2":-89.0444,"dy":0.0017,"dx":0.0017,"nx":28,"ny":28,"refTime":"2025-02-24T03:00:00:Z","depth":"4","parameterNumber":2,"parameterNumberName":"U-component_of_CURRENTS"},"data":[0,0,0,0,0,0,0,0,0,0,0,0,0,0,0,0,0,0,0,0,0,0,0,0,0,0,0,0,0,0,0,0,0,0,0,0,0,0,0,0,0,0,0,0,0,0,0,0,0,0,0,0,0,0,0,0,0,0,-0.1262,-0.1263,0,-0.1317,-0.1318,-0.1318,-0.1349,-0.135,-0.135,-0.135,-0.1403,-0.1404,-0.1405,0,0,0,0,0,0,0,0,0,0,0,0,0,-0.12,-0.1201,-0.1262,-0.1263,-0.1264,-0.1317,-0.1318,-0.1319,-0.1349,-0.135,-0.135,-0.135,-0.1402,-0.1404,-0.1405,0,0,0,0,0,0,0,0,0,0,0,0,0,-0.1238,-0.1201,-0.1262,-0.1285,-0.1288,-0.1317,-0.1318,-0.1319,-0.1349,-0.135,-0.135,-0.135,-0.1402,-0.1404,-0.1405,-0.1414,0,0,-0.1411,-0.1412,0,0,0,0,0,0,0,0,-0.1236,-0.124,-0.1281,-0.1284,-0.1287,-0.1327,-0.1315,-0.1351,-0.1349,-0.1326,-0.135,-0.135,-0.1377,-0.1381,-0.1391,-0.1417,-0.1419,-0.1412,-0.1413,-0.1414,-0.1414,0,0,0,0,0,0,0,-0.1233,-0.1238,-0.1284,-0.1282,-0.1285,-0.1299,-0.1304,-0.1322,-0.135,-0.1328,-0.133,-0.1337,-0.1378,-0.1389,-0.1392,-0.142,-0.1412,-0.1413,-0.1415,-0.1415,-0.1492,-0.1492,0,0,0,0,0,0,-0.1226,-0.1236,-0.1282,-0.1286,-0.1261,-0.13,-0.1306,-0.1314,-0.135,-0.1355,-0.1336,-0.1338,-0.1385,-0.139,-0.1394,-0.1453,-0.1414,-0.1416,-0.1417,-0.1491,-0.1492,-0.1493,0,0,0,0,0,0,-0.1224,-0.1229,-0.128,-0.1262,-0.1269,-0.13,-0.1309,-0.1315,-0.1342,-0.1356,-0.1362,-0.136,-0.1386,-0.1392,-0.1436,-0.1454,-0.1416,-0.1418,-0.149,-0.1491,-0.1492,-0.1541,0,0,0,0,0,0,-0.1222,-0.1228,-0.1241,-0.1261,-0.127,-0.1307,-0.1309,-0.1316,-0.1345,-0.1348,-0.1378,-0.1382,-0.1386,-0.1434,-0.1438,-0.1456,-0.142,-0.1489,-0.149,-0.1492,-0.1538,-0.1544,-0.1549,0,0,0,0,0,-0.122,-0.1231,-0.1241,-0.1247,-0.1283,-0.1308,-0.1314,-0.1336,-0.1346,-0.1361,-0.1391,-0.1382,-0.1446,-0.1437,-0.1442,-0.146,-0.1488,-0.149,-0.1492,-0.1536,-0.1543,-0.1548,0,0,0,0,0,0,-0.1214,-0.1236,-0.1247,-0.1267,-0.1291,-0.1313,-0.1332,-0.1346,-0.1382,-0.1392,-0.1404,-0.1411,-0.1452,-0.1451,-0.144,-0.1485,-0.1461,-0.1464,-0.1493,-0.1499,-0.1504,-0.1502,-0.1421,0,0,0,0,0,-0.1218,-0.1231,-0.1256,-0.1274,-0.1288,-0.1314,-0.1331,-0.1347,-0.1376,-0.1392,-0.142,-0.1442,-0.1461,-0.1478,-0.1495,-0.1528,-0.1507,-0.1538,-0.1543,-0.1548,-0.1549,-0.1528,-0.1531,-0.1499,-0.1499,-0.1499,0,0,-0.1221,-0.1235,-0.1244,-0.1274,-0.1296,-0.1325,-0.1326,-0.1356,-0.1387,-0.1392,-0.1453,-0.1466,-0.1474,-0.1511,-0.1528,-0.1516,-0.1549,-0.155,-0.1554,-0.1553,-0.153,-0.1533,-0.1535,-0.15,-0.15,-0.15,0,0,-0.1229,-0.1249,-0.1264,-0.1288,-0.1322,-0.1341,-0.1354,-0.1393,-0.1419,-0.1471,-0.1479,-0.1506,-0.1549,-0.1555,-0.156,-0.1603,-0.1576,-0.1607,-0.1635,-0.1615,-0.1617,-0.1619,-0.1607,-0.1607,-0.161,-0.161,-0.161,0,-0.1237,-0.1257,-0.1274,-0.1299,-0.1324,-0.1351,-0.1381,-0.1411,-0.1464,-0.1487,-0.1497,-0.1555,-0.1565,-0.1593,-0.1611,-0.1614,-0.1601,-0.1613,-0.1621,-0.1622,-0.1623,-0.161,-0.161,-0.1612,-0.1612,-0.1612,-0.1612,0,-0.1252,-0.1281,-0.1295,-0.1336,-0.1365,-0.1394,-0.1436,-0.1476,-0.1512,-0.1538,-0.1588,-0.1607,-0.1634,-0.1641,-0.1645,-0.1659,-0.1648,-0.1629,-0.1604,-0.1629,-0.1615,-0.1613,-0.1616,-0.1615,-0.1614,-0.1614,0,0,-0.1239,-0.1295,-0.1303,-0.133,-0.1388,-0.141,-0.1468,-0.1518,-0.1555,-0.1603,-0.1644,-0.1679,-0.1686,-0.1692,-0.1694,-0.1686,-0.1687,-0.1668,-0.1666,-0.1655,-0.1651,-0.1548,-0.1536,-0.1669,-0.1669,-0.1669,-0.1643,0,-0.1251,-0.1296,-0.1326,-0.1382,-0.141,-0.1459,-0.1509,-0.1559,-0.1604,-0.1654,-0.1669,-0.1709,-0.1704,-0.1721,-0.1713,-0.1699,-0.1684,-0.1696,-0.1631,-0.1629,-0.1531,-0.153,-0.1668,-0.1642,-0.1641,-0.1641,-0.1641,0,-0.1254,-0.1285,-0.1337,-0.1404,-0.1423,-0.1466,-0.1543,-0.1591,-0.1657,-0.1693,-0.1727,-0.1743,-0.1761,-0.1743,-0.172,-0.1731,-0.1695,-0.1674,-0.1671,-0.1553,-0.1521,-0.1609,-0.1638,-0.1638,-0.1638,-0.1638,-0.1639,0,-0.1221,-0.1292,-0.1332,-0.1357,-0.1439,-0.1479,-0.1527,-0.1602,-0.1646,-0.1714,-0.1747,-0.1769,-0.1782,-0.175,-0.1718,-0.1721,-0.1675,-0.1666,-0.1536,-0.153,-0.1611,-0.161,-0.1626,-0.1626,-0.1626,-0.1626,-0.1626,0,-0.1207,-0.1244,-0.1324,-0.1346,-0.1404,-0.1467,-0.1535,-0.1589,-0.1663,-0.1696,-0.1758,-0.177,-0.1782,-0.1762,-0.1724,-0.1623,-0.1673,-0.1535,-0.1508,-0.1635,-0.1636,-0.1611,-0.1609,-0.1625,-0.1625,-0.1625,-0.1626,0,-0.1161,-0.1216,-0.1266,-0.1356,-0.139,-0.1429,-0.1534,-0.1567,-0.1655,-0.1697,-0.1718,-0.1774,-0.1744,-0.1737,-0.1684,-0.1613,-0.154,-0.1486,-0.1633,-0.1616,-0.1412,-0.1414,-0.1342,-0.1338,-0.1335,-0.1332,-0.133,0,-0.1137,-0.1158,-0.1259,-0.1285,-0.133,-0.1404,-0.1443,-0.1548,-0.1573,-0.1672,-0.1664,-0.1691,-0.1703,-0.1553,-0.1559,-0.1475,-0.1444,-0.1406,-0.1399,-0.1398,-0.1379,-0.1387,-0.1393,-0.1324,-0.1323,-0.1322,-0.1321,0,-0.1085,-0.1131,-0.1167,-0.1223,-0.1271,-0.1323,-0.1383,-0.1398,-0.1494,-0.1592,-0.1563,-0.1542,-0.1507,-0.1464,-0.1409,-0.1348,-0.1436,-0.137,-0.1377,-0.1369,-0.1375,-0.1362,-0.1372,-0.1309,-0.1311,-0.1312,-0.1313,0,-0.1039,-0.1049,-0.1097,-0.1135,-0.1193,-0.1204,-0.1263,-0.1276,-0.1321,-0.1426,-0.1406,-0.1434,-0.1485,-0.1396,-0.1344,-0.1282,-0.1254,-0.1201,-0.1216,-0.123,-0.1202,-0.1193,-0.1038,0,0,0,0,0,-0.0981,-0.0972,-0.0999,-0.1029,-0.1081,-0.1112,-0.1194,-0.1249,-0.1347,-0.1281,-0.1342,-0.1301,-0.1244,-0.1262,-0.1166,-0.1282,-0.1256,-0.1166,-0.1204,-0.1243,-0.1257,-0.1233,0,0,0,0,0,0,-0.0936,-0.0955,-0.0959,-0.0927,-0.0924,-0.0967,-0.1013,-0.1084,-0.1057,-0.1161,-0.1131,-0.1207,-0.1165,-0.1265,-0.1133,-0.1135,-0.1127,-0.1189,-0.1185,-0.1235,-0.1248,-0.1259,-0.1239,0,0,0,0,0]},{"header":{"parameterUnit":"m.s-1","parameterCategory":2,"la1":30.2991,"la2":30.254,"lo1":-89.0895,"lo2":-89.0444,"dy":0.0017,"dx":0.0017,"nx":28,"ny":28,"refTime":"2025-02-24T03:00:00:Z","depth":"4","parameterNumber":3,"parameterNumberName":"V-component_of_CURRENTS"},"data":[0,0,0,0,0,0,0,0,0,0,0,0,0,0,0,0,0,0,0,0,0,0,0,0,0,0,0,0,0,0,0,0,0,0,0,0,0,0,0,0,0,0,0,0,0,0,0,0,0,0,0,0,0,0,0,0,0,0,-0.0104,-0.0104,0,-0.0062,-0.0062,-0.0061,-0.0027,-0.0027,-0.0026,-0.0026,0.007,0.0072,0.0075,0,0,0,0,0,0,0,0,0,0,0,0,0,-0.0113,-0.0113,-0.0104,-0.0104,-0.0103,-0.0062,-0.0062,-0.0061,-0.0027,-0.0027,-0.0026,-0.0026,0.0069,0.0072,0.0075,0,0,0,0,0,0,0,0,0,0,0,0,0,-0.0093,-0.0113,-0.0104,-0.0082,-0.008,-0.0062,-0.0062,-0.0061,-0.0027,-0.0027,-0.0026,-0.0026,0.0068,0.0072,0.0075,0.0089,0,0,0.0086,0.0087,0,0,0,0,0,0,0,0,-0.0094,-0.0092,-0.0086,-0.0084,-0.0081,-0.005,-0.0029,-0.0008,-0.0027,-0.0046,-0.0026,-0.0026,0.0034,0.004,0.0048,0.0093,0.0097,0.0086,0.0088,0.009,0.0091,0,0,0,0,0,0,0,-0.0095,-0.0094,-0.0087,-0.0086,-0.0083,-0.006,-0.0057,-0.0025,-0.0007,-0.0044,-0.0042,-0.0039,0.0036,0.0044,0.0051,0.0099,0.0086,0.0089,0.0091,0.0093,0.0162,0.0162,0,0,0,0,0,0,-0.0105,-0.0095,-0.0088,-0.0085,-0.0088,-0.006,-0.0057,-0.006,-0.0008,-0.0001,-0.0039,-0.0038,0.0038,0.0046,0.0054,0.0077,0.009,0.0093,0.0095,0.0162,0.0162,0.0162,0,0,0,0,0,0,-0.0106,-0.0105,-0.009,-0.009,-0.0086,-0.0061,-0.0064,-0.0059,-0.0051,-0.0006,0.0003,-0.0037,0.0039,0.0049,0.0081,0.0081,0.0094,0.0098,0.0163,0.0162,0.0162,0.0121,0,0,0,0,0,0,-0.0106,-0.0106,-0.0112,-0.0091,-0.0087,-0.0084,-0.0064,-0.0059,-0.005,-0.0047,-0.0,0.0009,0.004,0.0076,0.0085,0.0086,0.01,0.0163,0.0162,0.0162,0.0123,0.0119,0.0117,0,0,0,0,0,-0.0107,-0.0117,-0.0112,-0.0111,-0.0096,-0.0085,-0.008,-0.006,-0.0051,-0.005,-0.0017,0.0008,0.0079,0.0079,0.0089,0.0091,0.0163,0.0162,0.0162,0.0124,0.012,0.0117,0,0,0,0,0,0,-0.0121,-0.0114,-0.0108,-0.0115,-0.0103,-0.0079,-0.0078,-0.0064,-0.0039,-0.0036,0.0009,0.002,0.0047,0.0073,0.0071,0.0109,0.0124,0.0125,0.0091,0.0088,0.0085,0.0075,0.0103,0,0,0,0,0,-0.0129,-0.0137,-0.0122,-0.0128,-0.0124,-0.0102,-0.0095,-0.0084,-0.0059,-0.0048,-0.0014,0.0021,0.0052,0.0072,0.0102,0.0126,0.0148,0.0133,0.0129,0.0127,0.0125,0.0157,0.0156,0.016,0.016,0.016,0,0,-0.0135,-0.0133,-0.0137,-0.0131,-0.012,-0.0118,-0.0097,-0.0093,-0.0086,-0.0041,-0.002,0.0011,0.0055,0.008,0.0094,0.0104,0.0136,0.0126,0.0123,0.0123,0.0156,0.0156,0.0156,0.016,0.016,0.016,0,0,-0.0153,-0.0151,-0.0164,-0.0158,-0.015,-0.0135,-0.0137,-0.0115,-0.0101,-0.008,-0.0046,-0.0016,0.003,0.0063,0.0085,0.0083,0.0115,0.009,0.0072,0.0103,0.0103,0.0103,0.0123,0.0126,0.0091,0.0091,0.0091,0,-0.0161,-0.0175,-0.0164,-0.0173,-0.017,-0.0145,-0.0153,-0.0134,-0.0104,-0.0091,-0.008,-0.0013,0.0022,0.0061,0.0059,0.0077,0.0095,0.0083,0.0099,0.01,0.0101,0.0121,0.0124,0.0089,0.009,0.009,0.009,0,-0.0187,-0.0197,-0.0203,-0.0206,-0.0201,-0.0205,-0.0181,-0.017,-0.015,-0.0128,-0.0093,-0.0045,-0.0005,0.001,0.0036,0.0062,0.0072,0.0088,0.0107,0.0098,0.012,0.0124,0.0086,0.0087,0.0088,0.0088,0,0,-0.0209,-0.022,-0.0223,-0.0232,-0.0221,-0.0222,-0.021,-0.0191,-0.0185,-0.0146,-0.0131,-0.0075,-0.005,-0.0024,0.0014,0.0044,0.0065,0.0065,0.0068,0.0082,0.0125,0.0113,0.0117,0.0085,0.0085,0.0086,0.0134,0,-0.0232,-0.0261,-0.0256,-0.0275,-0.0284,-0.0261,-0.0255,-0.0234,-0.0206,-0.0183,-0.0127,-0.01,-0.0061,-0.0047,-0.0009,0.0049,0.0075,0.005,0.0134,0.0136,0.0126,0.0121,0.0088,0.0137,0.0138,0.0139,0.014,0,-0.026,-0.0276,-0.0303,-0.0314,-0.0316,-0.0322,-0.0311,-0.0302,-0.0258,-0.0238,-0.0193,-0.0151,-0.0093,-0.0069,0.003,0.0011,0.006,0.0103,0.0107,0.0114,0.0133,0.0152,0.0148,0.0147,0.0146,0.0146,0.0145,0,-0.0286,-0.0308,-0.0333,-0.0337,-0.0343,-0.035,-0.0348,-0.032,-0.0319,-0.0272,-0.0267,-0.0186,-0.0155,-0.0073,0.002,0.0024,0.0119,0.0139,0.0175,0.0174,0.0188,0.0188,0.0196,0.0196,0.0196,0.0196,0.0196,0,-0.0311,-0.0332,-0.0351,-0.0366,-0.04,-0.0387,-0.0408,-0.0392,-0.0374,-0.0372,-0.0301,-0.028,-0.0157,-0.0084,0.0005,0.0101,0.011,0.0169,0.0187,0.0169,0.0165,0.0191,0.019,0.0198,0.0197,0.0197,0.0197,0,-0.0333,-0.0345,-0.038,-0.0402,-0.0415,-0.0439,-0.0463,-0.0472,-0.0449,-0.0444,-0.0434,-0.0352,-0.0249,-0.0129,0.0003,0.0069,0.0169,0.0196,0.0157,0.0173,0.0207,0.0203,0.0245,0.0245,0.0245,0.0245,0.0245,0,-0.0346,-0.0366,-0.0416,-0.0446,-0.0461,-0.0496,-0.052,-0.0513,-0.0518,-0.0483,-0.048,-0.0393,-0.0321,-0.014,-0.0017,0.0148,0.017,0.0211,0.0221,0.0199,0.0213,0.0209,0.0205,0.0245,0.0245,0.0245,0.0245,0,-0.0369,-0.039,-0.0421,-0.0484,-0.0525,-0.0566,-0.0592,-0.0604,-0.0585,-0.0573,-0.0506,-0.0406,-0.0295,-0.0142,-0.0021,0.0098,0.0183,0.0211,0.0213,0.0223,0.02,0.0213,0.0209,0.0245,0.0245,0.0245,0.0245,0,-0.0386,-0.0417,-0.046,-0.0512,-0.057,-0.0608,-0.0623,-0.0616,-0.0617,-0.0567,-0.0547,-0.0416,-0.0338,-0.0169,-0.0055,0.006,0.0093,0.0126,0.0132,0.0134,0.0089,0.0043,0.0054,0,0,0,0,0,-0.0395,-0.0427,-0.0482,-0.0538,-0.0596,-0.0621,-0.0657,-0.0659,-0.0646,-0.0601,-0.0569,-0.0456,-0.0276,-0.02,-0.0084,-0.0059,0.0103,0.0077,0.0142,0.0246,0.0246,0.0212,0,0,0,0,0,0,-0.0401,-0.0451,-0.0477,-0.0543,-0.0583,-0.0637,-0.0659,-0.0652,-0.0617,-0.0588,-0.0487,-0.0435,-0.0256,-0.0333,-0.0081,-0.0049,0.0005,0.0163,0.0165,0.0246,0.0246,0.0246,0.0211,0,0,0,0,0]}]]